Location: Glen Waverley
(37.8830°S, 145.1670°E)
Time: 22:10:40
(UTC+11:00)

ISS - Visible Passes

Search period start: 10 December 2019 00:00
Search period end: 20 December 2019 00:00
Orbit: 411 x 421 km, 51.6° (Epoch: 10 December)

Date Brightness Start Highest point End Pass type
(mag) Time Alt. Az. Time Alt. Az. Time Alt. Az.
10 Dec -0.5 01:09:50 12° SE 01:09:50 12° SE 01:10:04 10° SE visible
10 Dec -0.7 02:42:42 11° SW 02:44:03 13° SSW 02:45:44 10° S visible
11 Dec -0.9 01:55:27 17° SSW 01:55:27 17° SSW 01:57:40 10° SSE visible
11 Dec -0.5 05:09:45 10° S 05:11:18 12° SSE 05:12:51 10° SE visible
12 Dec -0.9 01:08:03 18° S 01:08:03 18° S 01:09:30 10° SSE visible
12 Dec -0.1 04:22:06 10° S 04:22:31 10° SSE 04:22:55 10° SSE visible
13 Dec -0.9 00:20:23 16° SSE 00:20:23 16° SSE 00:21:14 10° SE visible
13 Dec -0.3 01:54:40 10° SSW 01:55:35 11° SSW 01:56:29 10° S visible
13 Dec -0.8 05:08:48 10° SSW 05:11:29 21° SSE 05:14:10 10° E visible
13 Dec -1.2 23:32:07 15° SE 23:32:07 15° SE 23:32:52 10° SE visible
14 Dec -0.4 01:04:58 10° SW 01:06:47 13° SSW 01:08:35 10° SSE visible
14 Dec -0.5 04:20:37 10° SSW 04:22:46 16° SSE 04:24:55 10° ESE visible
14 Dec -3.9 22:37:32 10° NW 22:40:56 75° NE 22:44:22 10° SE visible
15 Dec -0.8 00:15:36 10° WSW 00:18:01 18° SSW 00:20:28 10° SSE visible
15 Dec -0.3 03:32:32 10° S 03:33:59 12° SSE 03:35:25 10° SE visible
15 Dec -2.5 05:08:05 10° SW 05:11:25 46° SE 05:14:42 10° ENE visible
15 Dec -3.3 21:49:16 10° NNW 21:52:29 39° NE 21:55:43 10° ESE visible
15 Dec -1.3 23:26:25 10° W 23:29:18 25° SSW 23:32:14 10° SSE visible
16 Dec -1.5 04:19:44 10° SSW 04:22:48 29° SSE 04:25:49 10° E visible
16 Dec -2.2 22:37:25 10° WNW 22:40:39 38° SSW 22:43:54 10° SE visible
17 Dec 0.0 00:17:05 10° SSW 00:18:11 11° SSW 00:19:16 10° S visible
17 Dec -0.8 03:31:28 10° SSW 03:34:06 20° SSE 03:36:42 10° ESE visible
17 Dec -3.7 05:07:43 10° WSW 05:11:04 57° NW 05:14:23 10° NE visible
17 Dec -3.3 21:48:38 10° WNW 21:52:02 65° SW 21:55:28 10° SE visible
17 Dec -0.3 23:27:25 10° SW 23:29:20 14° SSW 23:31:15 10° SSE visible
18 Dec -0.4 02:43:15 10° SSW 02:45:19 15° SSE 02:47:22 10° ESE visible
18 Dec -3.6 04:19:07 10° SW 04:22:33 76° SE 04:25:56 10° NE visible
18 Dec -0.7 22:38:01 10° WSW 22:40:32 19° SSW 22:43:04 10° SSE visible
19 Dec -0.2 01:55:10 10° S 01:56:29 12° SSE 01:57:48 10° SE visible
19 Dec -2.5 03:30:39 10° SW 03:33:57 43° SE 03:37:13 10° ENE visible
19 Dec -2.3 05:08:01 10° W 05:10:27 18° NW 05:12:51 10° N visible
19 Dec -1.3 21:48:50 10° W 21:51:47 26° SSW 21:54:46 10° SSE visible
